�N����,����,�~����,�C��,���x,�C��,����,���ϕ���,�ő�u�ԕ���,�ő厞����,���˗�,�I�_���x,�n�����x,�ő啗���N��,DTYPE
"21/08/30","00:10",0.0,25.8,85.9,1008.1,334.7,1.1,2.5,338.7,0.00,23.3,28.0,"00:06:56",1
"21/08/30","00:20",0.0,25.7,86.2,1008.1,328.9,0.6,1.1,344.8,0.00,23.3,28.0,"00:10:16",1
"21/08/30","00:30",0.0,25.6,86.4,1008.3,339.7,0.7,1.9,345.1,0.00,23.2,27.9,"00:25:04",1
"21/08/30","00:40",0.0,25.6,86.8,1008.3,338.1,1.2,2.4,328.0,0.00,23.3,27.9,"00:33:04",1
"21/08/30","00:50",0.0,25.5,87.2,1008.1,335.2,2.0,2.9,336.1,0.00,23.3,27.8,"00:42:00",1
"21/08/30","01:00",0.0,25.5,87.3,1008.3,327.6,1.2,2.2,359.0,0.00,23.3,27.9,"00:51:12",1
"21/08/30","01:10",0.0,25.6,87.5,1008.3,324.7,1.1,2.2,340.9,0.00,23.4,27.8,"01:05:28",1
"21/08/30","01:20",0.0,25.5,87.6,1008.1,338.6,1.3,2.2,342.0,0.00,23.3,27.7,"01:12:00",1
"21/08/30","01:30",0.0,25.3,87.7,1008.3,328.4,1.1,1.9,338.0,0.00,23.2,27.7,"01:22:00",1
"21/08/30","01:40",0.0,25.2,88.0,1008.3,330.3,0.8,1.3,340.9,0.00,23.1,27.7,"01:38:40",1
"21/08/30","01:50",0.0,25.3,88.2,1008.6,343.7,1.2,1.9,327.4,0.00,23.2,27.7,"01:41:12",1
"21/08/30","02:00",0.0,25.3,88.3,1008.6,341.7,1.2,2.2,347.1,0.00,23.3,27.9,"01:50:08",1
"21/08/30","02:10",0.0,25.3,88.4,1008.6,341.5,1.5,2.6,340.9,0.00,23.3,27.8,"02:08:00",1
"21/08/30","02:20",0.0,25.4,88.5,1008.8,340.7,1.2,1.9,345.8,0.00,23.4,27.6,"02:10:32",1
"21/08/30","02:30",0.0,25.5,88.6,1009.0,338.5,1.5,2.4,317.8,0.00,23.5,27.6,"02:21:52",1
"21/08/30","02:40",0.0,25.5,88.5,1008.6,338.2,1.6,2.5,339.9,0.00,23.5,27.4,"02:38:08",1
"21/08/30","02:50",0.0,25.5,88.5,1008.8,334.6,0.8,2.2,334.7,0.00,23.5,27.5,"02:41:28",1
"21/08/30","03:00",0.0,25.6,88.5,1008.6,327.6,1.2,2.4,327.0,0.00,23.6,27.5,"02:56:56",1
"21/08/30","03:10",0.0,25.6,88.2,1009.0,334.0,0.8,1.8,342.3,0.00,23.5,27.3,"03:06:24",1
"21/08/30","03:20",0.0,25.4,88.2,1008.8,341.1,1.2,2.7,346.2,0.00,23.3,27.5,"03:18:16",1
"21/08/30","03:30",0.0,25.3,88.3,1008.8,337.5,1.2,2.8,357.8,0.00,23.3,27.3,"03:20:40",1
"21/08/30","03:40",0.0,25.2,88.4,1009.0,335.4,1.0,1.6,312.7,0.00,23.2,27.4,"03:37:12",1
"21/08/30","03:50",0.0,25.2,88.6,1009.3,329.7,1.1,1.9,350.3,0.00,23.2,27.5,"03:41:20",1
"21/08/30","04:00",0.0,24.9,88.7,1008.6,327.9,0.8,1.4,334.0,0.00,22.9,27.4,"03:54:56",1
"21/08/30","04:10",0.0,24.7,88.9,1009.0,308.1,0.7,1.3,322.0,0.00,22.8,27.3,"04:01:52",1
"21/08/30","04:20",0.0,24.7,89.3,1009.0,325.8,1.0,2.0,339.6,0.00,22.9,27.2,"04:18:24",1
"21/08/30","04:30",0.0,24.7,89.5,1008.8,318.0,1.0,1.9,333.1,0.00,22.9,27.4,"04:21:36",1
"21/08/30","04:40",0.0,24.6,89.8,1008.8,321.4,0.8,1.7,336.4,0.00,22.9,27.2,"04:39:20",1
"21/08/30","04:50",0.0,24.5,90.0,1008.8,326.7,1.1,1.7,332.3,0.00,22.8,27.3,"04:45:36",1
"21/08/30","05:00",0.0,24.4,90.2,1008.8,313.9,0.8,1.7,338.6,0.00,22.7,27.0,"04:53:28",1
"21/08/30","05:10",0.0,24.4,90.4,1008.8,326.4,1.0,1.6,331.4,0.00,22.8,27.0,"05:00:40",1
"21/08/30","05:20",0.0,24.2,90.7,1008.8,302.7,0.8,1.1,283.1,0.00,22.6,27.1,"05:14:24",1
"21/08/30","05:30",0.0,24.2,90.8,1009.3,301.7,1.0,1.2,323.2,0.00,22.6,26.9,"05:23:12",1
"21/08/30","05:40",0.0,24.0,90.9,1009.5,278.6,0.6,0.9,304.9,0.00,22.5,27.1,"05:39:28",1
"21/08/30","05:50",0.0,24.0,91.1,1009.5,326.8,0.7,1.1,354.3,0.00,22.5,26.9,"05:42:16",1
"21/08/30","06:00",0.0,24.0,91.3,1009.7,294.8,0.8,1.3,324.0,0.00,22.5,27.1,"05:57:04",1
"21/08/30","06:10",0.0,24.2,91.5,1009.3,300.9,0.7,1.3,308.7,0.00,22.8,26.9,"06:04:48",1
"21/08/30","06:20",0.0,24.4,91.5,1009.5,272.1,0.5,1.2,329.6,0.00,23.0,27.0,"06:10:16",1
"21/08/30","06:30",0.0,24.6,91.5,1009.7,317.1,0.7,1.2,334.8,0.00,23.2,26.9,"06:23:28",1
"21/08/30","06:40",0.0,24.8,91.6,1009.5,331.9,1.0,1.4,340.2,0.01,23.4,26.8,"06:32:32",1
"21/08/30","06:50",0.0,24.9,91.7,1009.7,328.5,1.1,1.4,340.7,0.02,23.5,26.8,"06:48:32",1
"21/08/30","07:00",0.0,25.0,91.7,1009.7,320.5,1.0,1.3,311.2,0.03,23.6,26.9,"06:50:08",1
"21/08/30","07:10",0.0,25.4,91.7,1010.0,303.6,0.7,1.1,330.4,0.04,24.0,26.8,"07:00:08",1
"21/08/30","07:20",0.0,25.8,91.6,1009.7,286.2,0.7,1.2,321.9,0.03,24.4,26.8,"07:12:08",1
"21/08/30","07:30",0.0,26.0,91.6,1010.0,256.0,0.7,1.3,240.1,0.06,24.6,26.8,"07:20:32",1
"21/08/30","07:40",0.0,26.3,91.2,1009.7,312.5,0.6,1.2,335.6,0.07,24.8,26.8,"07:39:52",1
"21/08/30","07:50",0.0,26.2,90.7,1010.0,327.5,0.8,1.7,341.2,0.07,24.6,26.9,"07:43:20",1
"21/08/30","08:00",0.0,27.2,90.0,1009.7,40.5,0.5,1.3,359.2,0.19,25.5,26.7,"07:50:16",1
"21/08/30","08:10",0.0,27.6,88.6,1009.3,260.9,0.5,1.9,218.0,0.13,25.6,26.9,"08:04:24",1
"21/08/30","08:20",0.0,28.0,86.8,1009.0,316.4,0.5,1.2,249.4,0.17,25.6,26.7,"08:10:32",1
"21/08/30","08:30",0.0,28.2,83.9,1009.5,205.0,0.7,1.7,195.1,0.21,25.3,27.1,"08:28:56",1
"21/08/30","08:40",0.0,29.3,80.5,1009.5,84.5,0.6,1.4,13.2,0.26,25.6,26.9,"08:36:16",1
"21/08/30","08:50",0.0,30.3,76.4,1010.0,34.1,0.6,1.8,351.6,0.29,25.7,26.8,"08:45:36",1
"21/08/30","09:00",0.0,30.6,73.3,1010.0,178.3,1.1,2.4,207.6,0.30,25.3,27.1,"08:54:08",1
"21/08/30","09:10",0.0,30.2,73.0,1010.2,150.9,1.0,1.9,133.3,0.19,24.9,26.9,"09:03:28",1
"21/08/30","09:20",0.0,30.6,72.4,1010.4,180.9,1.0,2.7,223.6,0.34,25.1,26.9,"09:19:36",1
"21/08/30","09:30",0.0,31.0,71.6,1010.4,172.7,1.1,2.6,178.7,0.39,25.3,27.1,"09:29:12",1
"21/08/30","09:40",0.0,31.5,70.2,1010.7,155.7,1.1,2.5,122.2,0.40,25.4,27.2,"09:34:08",1
"21/08/30","09:50",0.0,31.7,69.0,1010.9,120.3,1.2,2.8,76.0,0.42,25.3,27.1,"09:40:24",1
"21/08/30","10:00",0.0,31.6,68.8,1010.9,122.8,1.5,3.7,131.9,0.43,25.2,27.2,"09:54:00",1
"21/08/30","10:10",0.0,32.0,68.3,1010.9,153.3,1.2,2.9,157.1,0.48,25.5,27.3,"10:01:28",1
"21/08/30","10:20",0.0,32.4,66.5,1011.2,164.0,1.6,3.9,132.0,0.52,25.4,27.3,"10:12:24",1
"21/08/30","10:30",0.0,31.4,66.9,1010.9,199.5,1.7,3.3,229.9,0.22,24.5,27.5,"10:22:56",1
"21/08/30","10:40",0.0,32.0,68.2,1010.7,182.8,1.2,2.6,155.0,0.48,25.4,27.4,"10:32:48",1
"21/08/30","10:50",0.0,32.2,65.0,1010.7,224.2,1.3,3.6,234.3,0.38,24.8,27.7,"10:46:32",1
"21/08/30","11:00",0.0,32.0,65.7,1010.4,200.8,1.7,3.7,187.8,0.35,24.8,27.5,"10:52:48",1
"21/08/30","11:10",0.0,31.9,68.6,1010.2,189.8,1.5,2.4,191.3,0.28,25.4,27.7,"11:07:04",1
"21/08/30","11:20",0.0,33.2,64.1,1010.2,160.9,1.1,3.3,218.9,0.58,25.5,27.7,"11:17:36",1
"21/08/30","11:30",0.0,33.5,61.1,1010.9,156.4,1.0,2.2,178.2,0.41,25.0,27.7,"11:26:08",1
"21/08/30","11:40",0.0,32.8,60.3,1010.7,141.6,0.7,1.3,137.2,0.13,24.1,27.9,"11:30:56",1
"21/08/30","11:50",0.0,32.2,62.1,1010.0,71.6,0.7,2.0,118.8,0.13,24.1,27.8,"11:43:12",1
"21/08/30","12:00",0.0,33.1,64.4,1010.0,78.4,0.6,1.8,239.5,0.39,25.5,27.9,"11:58:56",1
"21/08/30","12:10",0.0,33.7,60.3,1010.2,221.4,1.8,3.5,217.8,0.63,25.0,28.0,"12:01:36",1
"21/08/30","12:20",0.0,34.4,57.3,1010.0,185.2,1.1,2.7,241.4,0.61,24.8,28.0,"12:10:56",1
"21/08/30","12:30",0.0,34.9,54.8,1010.7,225.4,1.2,2.8,227.1,0.65,24.5,28.1,"12:29:44",1
"21/08/30","12:40",0.0,34.5,54.3,1010.2,230.0,1.2,3.6,234.8,0.49,24.0,28.2,"12:33:20",1
"21/08/30","12:50",0.0,34.8,55.6,1010.0,235.7,1.1,3.1,223.8,0.57,24.6,28.2,"12:49:52",1
"21/08/30","13:00",0.0,34.6,54.5,1010.0,217.7,1.8,4.3,235.8,0.55,24.1,28.3,"12:50:24",1
"21/08/30","13:10",0.0,35.1,54.3,1010.0,200.7,1.6,4.3,212.3,0.57,24.5,28.3,"13:00:48",1
"21/08/30","13:20",0.0,35.6,51.3,1010.2,172.3,0.7,2.1,230.9,0.57,24.0,28.4,"13:12:08",1
"21/08/30","13:30",0.0,35.7,52.6,1010.0,253.4,1.1,3.1,249.7,0.56,24.5,28.6,"13:27:12",1
"21/08/30","13:40",0.0,35.0,54.1,1010.2,224.0,2.0,4.2,233.3,0.54,24.4,28.5,"13:31:20",1
"21/08/30","13:50",0.0,35.3,53.7,1009.3,203.3,1.5,4.0,228.5,0.52,24.5,28.6,"13:48:00",1
"21/08/30","14:00",0.0,35.1,54.4,1009.3,185.2,1.6,3.2,201.2,0.44,24.6,28.8,"13:54:48",1
"21/08/30","14:10",0.0,34.7,54.0,1009.3,186.0,1.5,3.3,226.7,0.37,24.1,29.0,"14:09:28",1
"21/08/30","14:20",0.0,35.4,54.7,1009.5,185.7,1.5,2.9,188.3,0.51,24.9,29.0,"14:14:32",1
"21/08/30","14:30",0.0,35.4,51.6,1009.3,213.9,1.5,3.1,228.0,0.44,23.9,29.1,"14:29:44",1
"21/08/30","14:40",0.0,35.2,53.7,1009.3,242.7,1.7,4.2,230.6,0.49,24.4,28.9,"14:37:12",1
"21/08/30","14:50",0.0,34.5,54.4,1009.0,238.5,1.3,2.8,235.0,0.27,24.0,29.0,"14:48:40",1
"21/08/30","15:00",0.0,35.1,53.6,1009.0,231.8,1.6,4.1,237.8,0.48,24.3,29.1,"14:52:16",1
"21/08/30","15:10",0.0,35.0,53.8,1008.8,212.7,1.7,4.1,231.4,0.32,24.3,28.9,"15:08:56",1
"21/08/30","15:20",0.0,33.7,57.4,1008.3,220.3,2.3,4.2,231.0,0.12,24.2,29.2,"15:18:56",1
"21/08/30","15:30",0.0,34.2,57.4,1008.3,237.6,1.8,3.2,238.0,0.36,24.6,28.8,"15:23:20",1
"21/08/30","15:40",0.0,33.9,58.6,1007.8,241.4,1.6,3.4,230.9,0.23,24.7,29.2,"15:34:56",1
"21/08/30","15:50",0.0,34.0,57.3,1008.1,225.9,2.0,4.3,198.5,0.25,24.4,29.2,"15:49:12",1
"21/08/30","16:00",0.0,34.4,56.8,1008.3,236.0,1.7,4.2,234.1,0.27,24.6,29.2,"15:56:08",1
"21/08/30","16:10",0.0,34.3,56.9,1008.1,234.9,2.0,5.9,233.8,0.24,24.6,29.2,"16:04:32",1
"21/08/30","16:20",0.0,34.2,56.2,1008.1,226.8,1.8,3.9,229.9,0.21,24.3,29.1,"16:11:12",1
"21/08/30","16:30",0.0,33.6,58.4,1008.1,227.2,2.0,4.1,222.2,0.13,24.3,29.2,"16:26:56",1
"21/08/30","16:40",0.0,33.4,58.2,1008.1,238.0,1.3,3.1,241.4,0.10,24.1,29.1,"16:38:40",1
"21/08/30","16:50",0.0,32.9,60.1,1008.3,248.0,0.8,2.1,225.2,0.05,24.2,29.2,"16:41:04",1
"21/08/30","17:00",0.0,32.6,60.7,1007.8,321.0,0.8,2.2,358.9,0.05,24.1,29.1,"16:56:40",1
"21/08/30","17:10",0.0,32.7,62.1,1007.8,348.9,0.7,1.6,346.7,0.06,24.5,29.2,"17:09:48",1
"21/08/30","17:20",0.0,32.4,62.6,1007.6,322.2,0.6,1.2,353.6,0.06,24.4,29.1,"17:13:44",1
"21/08/30","17:30",0.0,32.5,65.2,1007.6,341.7,0.6,1.8,343.0,0.03,25.2,29.2,"17:20:02",1
"21/08/30","17:40",0.0,32.0,66.2,1006.9,334.4,0.7,1.6,342.6,0.02,24.9,29.0,"17:35:52",1
"21/08/30","17:50",0.0,31.8,66.5,1007.1,342.5,0.6,1.7,339.0,0.02,24.8,29.0,"17:40:08",1
"21/08/30","18:00",0.0,31.4,67.3,1007.1,13.6,0.6,1.6,345.6,0.00,24.6,28.9,"17:59:20",1
"21/08/30","18:10",0.0,31.3,68.6,1006.9,6.8,1.3,2.4,14.3,0.00,24.9,29.1,"18:02:16",1
"21/08/30","18:20",0.0,30.5,70.9,1006.7,342.1,1.3,3.4,336.7,0.00,24.7,29.1,"18:10:02",1
"21/08/30","18:30",0.0,29.9,72.6,1006.2,342.8,2.0,4.1,341.0,0.00,24.5,29.2,"18:23:28",1
"21/08/30","18:40",0.0,29.5,73.8,1006.2,327.2,1.3,3.7,352.2,0.00,24.4,29.0,"18:31:12",1
"21/08/30","18:50",0.0,29.3,76.5,1006.2,265.2,0.6,1.7,235.4,0.00,24.8,29.0,"18:41:44",1
"21/08/30","19:00",0.0,29.1,79.6,1006.9,270.6,1.1,1.8,233.5,0.00,25.3,28.8,"18:52:00",1
"21/08/30","19:10",0.2,28.6,81.2,1006.9,322.0,0.8,1.9,351.8,0.00,25.1,28.8,"19:01:44",1
"21/08/30","19:20",0.0,28.2,82.1,1007.1,299.7,1.0,2.8,314.0,0.00,24.9,28.7,"19:18:48",1
"21/08/30","19:30",0.0,27.9,81.1,1008.1,339.7,1.5,3.1,344.6,0.00,24.4,28.8,"19:21:44",1
"21/08/30","19:40",0.0,27.7,80.4,1008.1,339.1,1.6,3.5,329.0,0.00,24.1,28.8,"19:39:36",1
"21/08/30","19:50",0.0,27.7,79.2,1008.8,349.8,2.7,6.0,345.0,0.00,23.8,28.7,"19:48:08",1
"21/08/30","20:00",0.0,27.0,81.1,1009.0,338.6,2.7,5.2,341.0,0.00,23.5,28.9,"19:52:40",1
"21/08/30","20:10",0.0,26.5,83.2,1008.8,343.7,2.6,5.1,354.4,0.00,23.5,28.6,"20:02:56",1
"21/08/30","20:20",0.0,26.3,84.3,1009.0,333.7,1.7,3.3,346.6,0.00,23.5,28.7,"20:11:20",1
"21/08/30","20:30",0.0,26.3,84.9,1008.8,335.4,2.0,4.2,342.7,0.00,23.6,28.7,"20:21:36",1
"21/08/30","20:40",0.0,26.3,85.2,1009.0,331.7,2.1,3.6,346.6,0.00,23.7,28.7,"20:38:48",1
"21/08/30","20:50",0.0,26.4,85.3,1009.3,333.1,2.0,3.5,340.6,0.00,23.8,28.6,"20:45:44",1
"21/08/30","21:00",0.0,26.4,85.5,1009.3,327.3,1.5,2.9,342.7,0.00,23.8,28.5,"20:50:32",1
"21/08/30","21:10",0.0,26.3,85.7,1009.3,322.0,1.5,2.5,318.0,0.00,23.8,28.6,"21:02:48",1
"21/08/30","21:20",0.0,26.4,85.8,1009.3,325.4,1.7,3.1,339.1,0.00,23.9,28.5,"21:11:36",1
"21/08/30","21:30",0.0,26.3,86.0,1009.0,330.8,1.6,2.7,336.0,0.00,23.8,28.4,"21:29:52",1
"21/08/30","21:40",0.0,26.3,86.2,1009.0,332.5,1.5,2.7,350.4,0.00,23.8,28.4,"21:33:44",1
"21/08/30","21:50",0.0,26.2,86.4,1009.0,335.8,1.3,2.5,316.7,0.00,23.8,28.4,"21:49:52",1
"21/08/30","22:00",0.0,26.1,86.7,1009.5,334.3,1.6,2.9,347.3,0.00,23.7,28.3,"21:53:12",1
"21/08/30","22:10",0.0,26.1,87.0,1009.3,332.1,1.5,3.1,330.2,0.00,23.8,28.2,"22:01:04",1
"21/08/30","22:20",0.0,26.0,87.1,1009.0,335.7,1.5,2.9,341.7,0.00,23.7,28.3,"22:11:28",1
"21/08/30","22:30",0.0,26.1,87.1,1009.3,336.0,1.3,2.5,343.7,0.00,23.8,28.1,"22:21:44",1
"21/08/30","22:40",0.0,26.0,87.2,1009.5,339.1,1.1,1.9,342.2,0.00,23.7,28.2,"22:31:12",1
"21/08/30","22:50",0.0,25.9,87.1,1009.3,332.2,1.1,2.0,344.7,0.00,23.6,28.2,"22:46:24",1
"21/08/30","23:00",0.0,25.9,86.9,1009.5,331.3,1.1,2.0,343.0,0.00,23.6,28.0,"22:55:28",1
"21/08/30","23:10",0.0,25.9,86.8,1009.3,332.2,1.1,2.0,339.5,0.00,23.6,28.2,"23:05:36",1
"21/08/30","23:20",0.0,25.8,86.7,1009.3,334.8,1.2,2.1,352.9,0.00,23.5,28.1,"23:10:32",1
"21/08/30","23:30",0.0,25.8,86.8,1008.8,333.4,1.2,1.7,346.9,0.00,23.5,28.1,"23:24:16",1
"21/08/30","23:40",0.0,25.7,87.0,1009.3,307.2,1.1,2.1,343.8,0.00,23.4,27.8,"23:32:48",1
"21/08/30","23:50",0.0,25.7,87.1,1009.5,290.4,0.8,1.4,330.8,0.00,23.4,28.1,"23:45:28",1
"21/08/30","24:00",0.0,25.6,87.2,1009.0,309.4,0.6,1.1,337.5,0.00,23.4,27.9,"23:53:28",1
